Home   Weather   Tsingtao   Past weeks

Flag for China Past Weather in Tsingtao, Shandong, China — Yesterday and Last 2 Weeks

Now
54 °F

Haze.


Feels Like: 50 °F
Forecast: 42 / 56 °F
Wind: 10 mph from Southwest

Location: Qingdao Airport

Current Time: Dec 3, 2016 at 2:54:15 pm

Latest Report: Dec 3, 2016 at 2:00 pm


Visibility: 3 mi

Pressure: 30.21 "Hg

Humidity: 58%

Dew Point: 39 °F

Location of TsingtaoLocation

Past Weather in Tsingtao — Graph

°F

Tsingtao Temperature Yesterday

Maximum temperature yesterday: 54 °F (at 2:00 pm)
Minimum temperature yesterday: 27 °F (at 6:00 am)
Average temperature yesterday: 39 °F

High & Low Weather Summary for the Past Weeks

 TemperatureHumidityPressure
High59 °F (Nov 19, 1:00 pm)100% (Nov 18, 2:00 pm)30.60 "Hg (Nov 18, 2:00 pm)
Low23 °F (Nov 24, 5:00 am)24% (Nov 24, 3:00 pm)29.86 "Hg (Nov 18, 2:00 pm)
Average41 °F64%30.34 "Hg
* Reported Nov 18 1:00 pm — Dec 3 1:00 pm, Tsingtao, Weather by CustomWeather, © 2016

Note: Actual official high and low records may vary slightly from our data, if they occured in-between our weather recording intervals... More about our weather records

Advertising

Tsingtao Weather History for the Previous 24 Hours

Scroll right to see more
 ConditionsComfort  
Time TempWeatherWind HumidityBarometerVisibility
1:00 pm
Sat, Dec 3
54 °FHaze.13 mph54%30.24 "Hg3 mi
12:00 pm54 °FHaze.10 mph54%30.27 "Hg3 mi
11:00 am52 °FHaze.10 mph54%30.30 "Hg3 mi
10:00 am52 °FHaze.6 mph54%30.33 "Hg2 mi
9:00 am46 °FFog.1 mph87%30.33 "Hg2 mi
8:00 am36 °FFog.1 mph87%30.33 "Hg2 mi
7:00 am34 °FFog.1 mph93%30.33 "Hg2 mi
6:00 am34 °FFog.1 mph87%30.33 "Hg2 mi
5:00 am34 °FFog.1 mph87%30.33 "Hg2 mi
4:00 am34 °FFog.1 mph87%30.33 "Hg2 mi
3:00 am34 °FFog.1 mph87%30.36 "Hg2 mi
2:00 am34 °FFog.1 mph87%30.39 "Hg2 mi
1:00 am34 °FFog.1 mph87%30.39 "Hg2 mi
12:00 am34 °FFog.1 mph81%30.39 "Hg2 mi
11:00 pm
Fri, Dec 2
34 °FFog.1 mph81%30.39 "Hg2 mi
10:00 pm36 °FFog.1 mph75%30.39 "Hg2 mi
9:00 pm37 °FFog.1 mph75%30.39 "Hg2 mi
8:00 pm37 °FFog.1 mph70%30.42 "Hg3 mi
7:00 pm43 °FClear.1 mph61%30.42 "Hg3 mi
6:00 pm43 °FClear.1 mph57%30.39 "Hg3 mi
5:00 pm48 °FClear.3 mph40%30.39 "Hg3 mi
4:00 pm52 °FClear.1 mph32%30.39 "Hg4 mi
3:00 pm54 °FSunny.3 mph33%30.42 "Hg10 mi
2:00 pm54 °FPassing clouds.6 mph30%30.42 "HgN/A
Weather by CustomWeather, © 2016

See weather overviewHow to use our weather pages